Castiadas, Italy

8:06 AM CET on January 18, 2017 (GMT +0100)
Capo Carbonara

Weather History for LIEC - October, 2013

Change the Weather History Date:

Wednesday, October 2, 2013

  Actual Average Record
Temperature  
Mean Temperature 78 °F -  
Max Temperature 84 °F 72 °F - ()
Min Temperature 73 °F 62 °F - ()
Cooling Degree Days 14    
Growing Degree Days 28 (Base 50)    
Moisture  
Dew Point 66 °F    
Average Humidity 69    
Maximum Humidity 74    
Minimum Humidity 58    
Precipitation  
Precipitation 0.00 in 0.05 in - ()
Sea Level Pressure  
Sea Level Pressure 29.89 in    
Wind  
Wind Speed 6 mph ()    
Max Wind Speed 12 mph    
Max Gust Speed -    
Visibility 7.4 miles    
Events      
T = Trace of Precipitation, MM = Missing Value Source: Averaged Metar Reports

Daily Weather History Graph

Daily Weather History Graph

Search for Another Location

Airport or City:

Trip Planner

Search our weather history database for the weather conditions in past years. The results will help you decide how hot, cold, wet, or windy it might be!

Date:

Astronomy

Oct. 02, 2013 Rise Set
Actual Time 7:18 AM CEST 7:02 PM CEST
Civil Twilight 6:52 AM CEST 7:29 PM CEST
Nautical Twilight 6:21 AM CEST 8:00 PM CEST
Astronomical Twilight 5:49 AM CEST 8:31 PM CEST
Moon 4:36 AM CEST (10/2) 5:29 PM CEST (10/2)
Length of Visible Light 12h 37m
Length of Day
11h 44m
Waning Crescent, 7% of the Moon is Illuminated
Oct 2
Waning Crescent
Oct 5
New
Oct 12
First Quarter
Oct 19
Full
Oct 27
Last Quarter

Hourly Weather History & Observations

Time (CEST) Temp. Heat Index Dew Point Humidity Pressure Visibility Wind Dir Wind Speed Gust Speed Precip Events Conditions
12:55 AM 75.2 °F - 62.6 °F 65% 29.83 in 6.2 mi WNW 6.9 mph - N/A   Partly Cloudy
1:55 AM 75.2 °F - 66.2 °F 73% 29.83 in 6.2 mi West 8.1 mph - N/A   Partly Cloudy
2:55 AM 73.4 °F - 64.4 °F 73% 29.83 in 6.2 mi SW 8.1 mph - N/A   Partly Cloudy
3:55 AM 73.4 °F - 64.4 °F 73% 29.83 in 6.2 mi SW 11.5 mph - N/A   Partly Cloudy
4:55 AM 73.4 °F - 64.4 °F 73% 29.83 in 6.2 mi SW 6.9 mph - N/A   Scattered Clouds
5:00 AM 73 °F - 64 °F 67% 29.84 in 12 mi SW 6.9 mph - -   Partly Cloudy
5:55 AM 73.4 °F - 64.4 °F 73% 29.83 in 6.2 mi West 4.6 mph - N/A   Partly Cloudy
6:55 AM 73.4 °F - 64.4 °F 73% 29.83 in 6.2 mi WSW 9.2 mph - N/A   Partly Cloudy
7:55 AM 73.4 °F - 62.6 °F 69% 29.86 in 6.2 mi WSW 9.2 mph - N/A   Partly Cloudy
8:55 AM 73.4 °F - 62.6 °F 69% 29.86 in 6.2 mi West 9.2 mph - N/A   Partly Cloudy
9:55 AM 75.2 °F - 64.4 °F 69% 29.89 in 6.2 mi WSW 6.9 mph - N/A   Scattered Clouds
10:55 AM 77.0 °F - 66.2 °F 69% 29.89 in 6.2 mi WSW 9.2 mph - N/A   Partly Cloudy
11:00 AM 77 °F - 67 °F 64% 29.88 in 12 mi WSW 9.2 mph - -   Scattered Clouds
11:55 AM 80.6 °F 83.9 °F 69.8 °F 70% 29.89 in 6.2 mi Calm Calm - N/A   Partly Cloudy
12:55 PM 82.4 °F 87.2 °F 71.6 °F 70% 29.92 in 6.2 mi East 4.6 mph - N/A   Partly Cloudy
1:55 PM 82.4 °F 86.3 °F 69.8 °F 66% 29.92 in 6.2 mi South 4.6 mph - N/A   Scattered Clouds
2:00 PM 82 °F - 70 °F 59% 29.90 in 12 mi South 4.6 mph - -   Partly Cloudy
2:55 PM 84.2 °F 90.9 °F 73.4 °F 70% 29.89 in 6.2 mi South 4.6 mph - N/A   Partly Cloudy
3:55 PM 84.2 °F 89.6 °F 71.6 °F 66% 29.89 in 6.2 mi South 5.8 mph - N/A   Partly Cloudy
4:55 PM 82.4 °F 87.2 °F 71.6 °F 70% 29.89 in 6.2 mi South 4.6 mph - N/A   Partly Cloudy
5:00 PM 83 °F - 71 °F 58% 29.89 in 12 mi South 4.6 mph - -   Scattered Clouds
5:55 PM 78.8 °F - 69.8 °F 74% 29.89 in 6.2 mi Calm Calm - N/A   Partly Cloudy
6:55 PM 75.2 °F - 66.2 °F 73% 29.92 in 6.2 mi ENE 4.6 mph - N/A   Partly Cloudy
7:55 PM 75.2 °F - 64.4 °F 69% 29.95 in 6.2 mi NE 6.9 mph - N/A   Partly Cloudy
8:00 PM 74 °F - 64 °F 63% 29.94 in 12 mi NE 6.9 mph - -   Scattered Clouds
8:55 PM 73.4 °F - 62.6 °F 69% 29.95 in 6.2 mi NE 10.4 mph - N/A   Partly Cloudy
9:55 PM 73.4 °F - 62.6 °F 69% 29.98 in 6.2 mi NE 10.4 mph - N/A   Partly Cloudy
10:55 PM 73.4 °F - 62.6 °F 69% 29.98 in 6.2 mi ENE 9.2 mph - N/A   Partly Cloudy
11:00 PM 73 °F - 63 °F 63% 29.99 in 12 mi ENE 9.2 mph - -   Scattered Clouds
11:55 PM 73.4 °F - 62.6 °F 69% 29.98 in 6.2 mi NE 9.2 mph - N/A   Partly Cloudy